Weather History for Triuchirapalli, India

Change the Weather History Date:

Monday, April 22, 2013

  Actual Average Record
Temperature  
Mean Temperature 92 °F -  
Max Temperature 104 °F 95 °F 104 °F (2012)
Min Temperature 80 °F 81 °F 77 °F (2011)
Cooling Degree Days 27    
Growing Degree Days 42 (Base 50)    
Moisture  
Dew Point 72 °F    
Average Humidity 52    
Maximum Humidity 79    
Minimum Humidity 21    
Precipitation  
Precipitation 0.00 in - - ()
Sea Level Pressure  
Sea Level Pressure 29.77 in    
Wind  
Wind Speed 5 mph ()    
Max Wind Speed 17 mph    
Max Gust Speed -    
Visibility 4.0 miles    
Events      
Averages and records for this station are not official NWS values.
T = Trace of Precipitation, MM = Missing Value Source: Averaged Metar Reports

Daily Weather History Graph

Daily Weather History Graph

Search for Another Location

Airport:

Trip Planner

Search our weather history database for the weather conditions in past years. The results will help you decide how hot, cold, wet, or windy it might be!

Date:

Astronomy

Apr. 22, 2013 Rise Set
Actual Time 6:00 AM IST 6:26 PM IST
Civil Twilight 5:39 AM IST 6:48 PM IST
Nautical Twilight 5:14 AM IST 7:13 PM IST
Astronomical Twilight 4:48 AM IST 7:38 PM IST
Moon 3:21 PM IST (4/22) 2:59 AM IST (4/22)
Length of Visible Light 13h 09m
Length of Day
12h 25m
Waxing Gibbous, 84% of the Moon is Illuminated
Apr 22
Waxing Gibbous
Apr 26
Full
May 2
Last Quarter
May 10
New
May 18
First Quarter

Hourly Weather History & Observations

Time (IST) Temp. Heat Index Dew Point Humidity Pressure Visibility Wind Dir Wind Speed Gust Speed Precip Events Conditions
12:10 AM 86.0 °F 93.4 °F 73.4 °F 66% 29.77 in 3.7 mi SSE 3.5 mph - N/A   Partly Cloudy
12:40 AM 84.2 °F 90.9 °F 73.4 °F 70% 29.77 in 3.7 mi SSE 3.5 mph - N/A   Partly Cloudy
1:10 AM 84.2 °F 90.9 °F 73.4 °F 70% 29.77 in 3.7 mi SSE 3.5 mph - N/A   Partly Cloudy
1:40 AM 84.2 °F 90.9 °F 73.4 °F 70% 29.77 in 3.7 mi SE 4.6 mph - N/A   Partly Cloudy
2:10 AM 84.2 °F 90.9 °F 73.4 °F 70% 29.77 in 3.7 mi SE 5.8 mph - N/A   Unknown
2:30 AM 83 °F - 72 °F 63% 29.75 in 2 mi SE 4.6 mph - -   Haze
2:40 AM 84.2 °F 90.9 °F 73.4 °F 70% 29.77 in 3.7 mi SE 4.6 mph - N/A   Unknown
3:10 AM 82.4 °F 88.2 °F 73.4 °F 74% 29.74 in 3.7 mi SSE 3.5 mph - N/A   Unknown
3:40 AM 82.4 °F 88.2 °F 73.4 °F 74% 29.74 in 3.7 mi SSE 3.5 mph - N/A   Unknown
4:10 AM 82.4 °F 88.2 °F 73.4 °F 74% 29.74 in 3.7 mi South 2.3 mph - N/A   Unknown
4:40 AM 82.4 °F 88.2 °F 73.4 °F 74% 29.74 in 3.7 mi South 3.5 mph - N/A   Unknown
5:30 AM 82 °F - 75 °F 73% 29.78 in 2 mi South 2.3 mph - -   Haze
5:40 AM 82.4 °F 89.5 °F 75.2 °F 79% 29.77 in 3.1 mi Calm Calm - N/A   Haze
6:40 AM 84.2 °F 92.3 °F 75.2 °F 74% 29.80 in 1.6 mi SSW 2.3 mph - N/A   Haze
7:40 AM 87.8 °F 97.6 °F 75.2 °F 66% 29.83 in 1.9 mi South 4.6 mph - N/A   Haze
8:10 AM 87.8 °F 97.6 °F 75.2 °F 66% 29.83 in 2.5 mi SSW 4.6 mph - N/A   Haze
8:30 AM 89 °F - 74 °F 54% 29.84 in 2 mi SW 4.6 mph - -   Haze
9:10 AM 91.4 °F 102.5 °F 75.2 °F 59% 29.86 in 3.7 mi South 6.9 mph - N/A   Unknown
9:40 AM 93.2 °F 102.4 °F 73.4 °F 52% 29.86 in 3.7 mi South 9.2 mph - N/A   Unknown
10:10 AM 95.0 °F 104.5 °F 73.4 °F 49% 29.86 in 3.7 mi South 9.2 mph - N/A   Partly Cloudy
10:40 AM 96.8 °F 105.1 °F 71.6 °F 44% 29.86 in 3.7 mi SSW 5.8 mph - N/A   Partly Cloudy
11:10 AM 98.6 °F 107.7 °F 71.6 °F 42% 29.83 in 4.3 mi SW 5.8 mph - N/A   Partly Cloudy
11:30 AM 100 °F - 71 °F 30% 29.82 in 2 mi SSE 9.2 mph - -   Haze
11:40 AM 100.4 °F 109.3 °F 71.6 °F 39% 29.83 in 4.3 mi SSW 5.8 mph - N/A   Partly Cloudy
12:10 PM 100.4 °F 109.3 °F 71.6 °F 39% 29.80 in 5.0 mi South 4.6 mph - N/A   Scattered Clouds
12:40 PM 102.2 °F 111.7 °F 71.6 °F 37% 29.77 in 6.2 mi South 9.2 mph - N/A   Scattered Clouds
1:10 PM 104.0 °F 112.2 °F 69.8 °F 33% 29.77 in 6.2 mi SSE 6.9 mph - N/A   Scattered Clouds
1:40 PM 105.8 °F 114.2 °F 69.8 °F 31% 29.74 in 6.2 mi South 5.8 mph - N/A   Scattered Clouds
2:10 PM 105.8 °F 119.1 °F 73.4 °F 36% 29.74 in 6.2 mi South 5.8 mph - N/A   Scattered Clouds
2:30 PM 105 °F - 67 °F 21% 29.72 in 6 mi SSW 3.5 mph - -   Mostly Cloudy
2:40 PM 104.0 °F 114.0 °F 71.6 °F 35% 29.71 in 6.2 mi SSE 5.8 mph - N/A   Scattered Clouds
3:10 PM 104.0 °F 112.2 °F 69.8 °F 33% 29.71 in 6.2 mi South 8.1 mph - N/A   Scattered Clouds
3:40 PM 104.0 °F 112.2 °F 69.8 °F 33% 29.68 in 6.2 mi South 8.1 mph - N/A   Scattered Clouds
4:10 PM 104.0 °F 114.0 °F 71.6 °F 35% 29.68 in 6.2 mi SSE 6.9 mph - N/A   Scattered Clouds
4:40 PM 104.0 °F 112.2 °F 69.8 °F 33% 29.68 in 6.2 mi East 5.8 mph - N/A   Scattered Clouds
5:10 PM 100.4 °F 107.8 °F 69.8 °F 37% 29.68 in 5.0 mi SSE 9.2 mph - N/A   Scattered Clouds
5:30 PM 99 °F - 69 °F 28% 29.67 in 2 mi South 11.5 mph - -   Haze
5:40 PM 98.6 °F 107.7 °F 71.6 °F 42% 29.68 in 5.0 mi South 17.3 mph - N/A   Scattered Clouds
6:10 PM 96.8 °F 105.1 °F 71.6 °F 44% 29.71 in 5.0 mi SSE 13.8 mph - N/A   Scattered Clouds
6:40 PM 95.0 °F 104.5 °F 73.4 °F 49% 29.74 in 3.7 mi SE 11.5 mph - N/A   Scattered Clouds
7:10 PM 95.0 °F 101.3 °F 69.8 °F 44% 29.74 in 3.7 mi SSE 12.7 mph - N/A   Scattered Clouds
7:40 PM 93.2 °F 97.7 °F 68.0 °F 44% 29.77 in 3.7 mi SE 11.5 mph - N/A   Partly Cloudy
8:10 PM 91.4 °F 98.4 °F 71.6 °F 52% 29.77 in 3.7 mi SSE 10.4 mph - N/A   Partly Cloudy
8:30 PM 90 °F - 71 °F 44% 29.77 in 2 mi SSE 9.2 mph - -   Haze
8:40 PM 89.6 °F 96.2 °F 71.6 °F 55% 29.77 in 3.7 mi South 11.5 mph - N/A   Unknown
9:10 PM 89.6 °F 96.2 °F 71.6 °F 55% 29.80 in 3.7 mi SSE 6.9 mph - N/A   Unknown
9:40 PM 89.6 °F 98.2 °F 73.4 °F 59% 29.80 in 3.7 mi South 6.9 mph - N/A   Unknown
10:10 PM 87.8 °F 95.6 °F 73.4 °F 62% 29.80 in 3.7 mi SSE 5.8 mph - N/A   Unknown
10:40 PM 87.8 °F 95.6 °F 73.4 °F 62% 29.83 in 3.7 mi South 6.9 mph - N/A   Unknown
11:10 PM 87.8 °F 95.6 °F 73.4 °F 62% 29.83 in 3.7 mi SSE 4.6 mph - N/A   Partly Cloudy
11:30 PM 86 °F - 71 °F 53% 29.82 in 2 mi SE 3.5 mph - -   Haze
11:40 PM 86.0 °F 91.8 °F 71.6 °F 62% 29.83 in 3.7 mi SSE 3.5 mph - N/A   Partly Cloudy